When you browse on this site, cookies collect data to enhance your experience and personalize the content and advertising you see.
Visit our Privacy Policy to learn more. By continuing to use the site, you agree to this use of cookies and data.
  • In Belgium
  • List of Countries
  • For 7 days
  • Water Temperature
  • Weather Map
  • Weather Widgets
  • user-avatar
    Login

    Hourly Weather Corfu

    Today, 20 January, Monday

    Time Temperature Precipitation Wind Pressure Humidity
    00:00 +10°C° 0 mm 1 mps 770 mmHg 82%
    01:00 +9°C° 0 mm 1 mps 771 mmHg 82%
    02:00 +8°C° 0 mm 2 mps 771 mmHg 80%
    03:00 +8°C° 0 mm 2 mps 771 mmHg 79%
    04:00 +8°C° 0 mm 2 mps 772 mmHg 77%
    05:00 +8°C° 0 mm 2 mps 772 mmHg 76%
    06:00 +7°C° 0 mm 3 mps 773 mmHg 75%
    07:00 +7°C° 0 mm 3 mps 773 mmHg 74%
    08:00 +8°C° 0 mm 3 mps 774 mmHg 69%
    09:00 +10°C° 0 mm 3 mps 774 mmHg 65%
    10:00 +12°C° 0 mm 2 mps 775 mmHg 61%
    11:00 +12°C° 0 mm 2 mps 775 mmHg 59%
    12:00 +13°C° 0 mm 2 mps 775 mmHg 57%
    13:00 +14°C° 0 mm 1 mps 775 mmHg 55%
    14:00 +13°C° 0 mm 1 mps 776 mmHg 59%
    15:00 +13°C° 0 mm 1 mps 776 mmHg 63%
    16:00 +13°C° 0 mm 1 mps 776 mmHg 66%
    17:00 +12°C° 0 mm 1 mps 776 mmHg 68%
    18:00 +11°C° 0 mm 1 mps 777 mmHg 71%
    19:00 +10°C° 0 mm 1 mps 777 mmHg 73%
    20:00 +9°C° 0 mm 2 mps 777 mmHg 72%
    21:00 +9°C° 0 mm 2 mps 778 mmHg 71%
    22:00 +9°C° 0 mm 2 mps 778 mmHg 70%
    23:00 +8°C° 0 mm 2 mps 778 mmHg 68%

    Tomorrow, 21 January, Tuesday

    Time Temperature Precipitation Wind Pressure Humidity
    00:00 +8°C° 0 mm 2 mps 778 mmHg 66%
    01:00 +8°C° 0 mm 2 mps 778 mmHg 65%
    02:00 +7°C° 0 mm 2 mps 778 mmHg 63%
    03:00 +7°C° 0 mm 2 mps 778 mmHg 62%
    04:00 +7°C° 0 mm 2 mps 778 mmHg 60%
    05:00 +7°C° 0 mm 2 mps 778 mmHg 58%
    06:00 +6°C° 0 mm 2 mps 778 mmHg 55%
    07:00 +6°C° 0 mm 2 mps 778 mmHg 53%
    08:00 +8°C° 0 mm 2 mps 778 mmHg 49%
    09:00 +9°C° 0 mm 2 mps 778 mmHg 46%
    10:00 +12°C° 0 mm 1 mps 778 mmHg 42%
    11:00 +12°C° 0 mm 1 mps 778 mmHg 43%
    12:00 +13°C° 0 mm 1 mps 777 mmHg 43%
    13:00 +14°C° 0 mm 1 mps 777 mmHg 43%
    14:00 +13°C° 0 mm 1 mps 777 mmHg 49%
    15:00 +13°C° 0 mm 2 mps 777 mmHg 55%
    16:00 +12°C° 0 mm 2 mps 776 mmHg 60%
    17:00 +10°C° 0 mm 2 mps 776 mmHg 61%
    18:00 +9°C° 0 mm 2 mps 776 mmHg 62%
    19:00 +8°C° 0 mm 2 mps 776 mmHg 63%
    20:00 +8°C° 0 mm 2 mps 776 mmHg 61%
    21:00 +8°C° 0 mm 2 mps 776 mmHg 59%
    22:00 +9°C° 0 mm 1 mps 776 mmHg 57%
    23:00 +8°C° 0 mm 1 mps 776 mmHg 56%

    Day after tomorrow, 22 January, Wednesday

    Time Temperature Precipitation Wind Pressure Humidity
    00:00 +8°C° 0 mm 1 mps 775 mmHg 54%
    01:00 +8°C° 0 mm 1 mps 775 mmHg 52%
    02:00 +8°C° 0 mm 1 mps 775 mmHg 51%
    03:00 +8°C° 0 mm 1 mps 774 mmHg 51%
    04:00 +8°C° 0 mm 1 mps 774 mmHg 50%
    05:00 +8°C° 0 mm 1 mps 774 mmHg 49%
    06:00 +7°C° 0 mm 1 mps 774 mmHg 49%
    07:00 +7°C° 0 mm 1 mps 774 mmHg 49%
    08:00 +9°C° 0 mm 1 mps 774 mmHg 47%
    09:00 +11°C° 0 mm 1 mps 774 mmHg 44%
    10:00 +12°C° 0 mm 1 mps 773 mmHg 42%
    11:00 +13°C° 0 mm 1 mps 773 mmHg 42%
    12:00 +13°C° 0 mm 1 mps 772 mmHg 43%
    13:00 +14°C° 0 mm 2 mps 772 mmHg 44%
    14:00 +13°C° 0 mm 2 mps 771 mmHg 48%
    15:00 +13°C° 0 mm 2 mps 771 mmHg 53%
    16:00 +11°C° 0 mm 3 mps 771 mmHg 57%
    17:00 +10°C° 0 mm 3 mps 770 mmHg 58%
    18:00 +10°C° 0 mm 3 mps 770 mmHg 58%
    19:00 +9°C° 0 mm 3 mps 770 mmHg 59%
    20:00 +8°C° 0 mm 2 mps 770 mmHg 57%
    21:00 +8°C° 0 mm 2 mps 770 mmHg 55%
    22:00 +8°C° 0 mm 2 mps 770 mmHg 53%
    23:00 +7°C° 0 mm 2 mps 770 mmHg 52%

    23 January, Thursday

    Time Temperature Precipitation Wind Pressure Humidity
    00:00 +7°C° 0 mm 3 mps 770 mmHg 51%
    01:00 +7°C° 0 mm 3 mps 769 mmHg 50%
    02:00 +7°C° 0 mm 3 mps 769 mmHg 50%
    03:00 +7°C° 0 mm 3 mps 769 mmHg 49%
    04:00 +7°C° 0 mm 3 mps 769 mmHg 49%
    05:00 +7°C° 0 mm 3 mps 769 mmHg 49%
    06:00 +5°C° 0 mm 3 mps 769 mmHg 49%
    07:00 +5°C° 0 mm 3 mps 769 mmHg 49%
    08:00 +8°C° 0 mm 3 mps 769 mmHg 47%
    09:00 +10°C° 0 mm 3 mps 769 mmHg 44%
    10:00 +12°C° 0 mm 2 mps 769 mmHg 41%
    11:00 +13°C° 0 mm 2 mps 769 mmHg 42%
    12:00 +14°C° 0 mm 2 mps 768 mmHg 42%
    13:00 +14°C° 0 mm 2 mps 768 mmHg 42%
    14:00 +14°C° 0 mm 2 mps 768 mmHg 46%
    15:00 +13°C° 0 mm 2 mps 768 mmHg 51%
    16:00 +13°C° 0 mm 2 mps 768 mmHg 55%
    17:00 +12°C° 0 mm 2 mps 769 mmHg 57%
    18:00 +10°C° 0 mm 2 mps 769 mmHg 59%
    19:00 +9°C° 0 mm 2 mps 769 mmHg 60%
    20:00 +9°C° 0 mm 2 mps 770 mmHg 60%
    21:00 +9°C° 0 mm 3 mps 770 mmHg 60%
    22:00 +9°C° 0 mm 3 mps 771 mmHg 60%
    23:00 +9°C° 0 mm 3 mps 771 mmHg 60%

    24 January, Friday

    Time Temperature Precipitation Wind Pressure Humidity
    00:00 +7°C° 0 mm 4 mps 771 mmHg 60%
    01:00 +7°C° 0 mm 4 mps 771 mmHg 61%
    02:00 +7°C° 0 mm 4 mps 771 mmHg 60%
    03:00 +7°C° 0 mm 4 mps 772 mmHg 60%
    04:00 +7°C° 0 mm 4 mps 772 mmHg 60%
    05:00 +7°C° 0 mm 4 mps 772 mmHg 61%
    06:00 +6°C° 0 mm 4 mps 772 mmHg 63%
    07:00 +6°C° 0 mm 5 mps 773 mmHg 64%
    08:00 +8°C° 0 mm 4 mps 773 mmHg 61%
    09:00 +10°C° 0 mm 4 mps 773 mmHg 59%
    10:00 +12°C° 0 mm 4 mps 773 mmHg 56%
    11:00 +12°C° 0 mm 4 mps 773 mmHg 58%
    12:00 +13°C° 0 mm 5 mps 773 mmHg 61%
    13:00 +13°C° 0 mm 5 mps 772 mmHg 64%
    14:00 +13°C° 0 mm 4 mps 772 mmHg 67%
    15:00 +13°C° 0 mm 4 mps 772 mmHg 71%
    16:00 +12°C° 0 mm 4 mps 772 mmHg 75%
    17:00 +12°C° 0 mm 3 mps 772 mmHg 77%
    18:00 +11°C° 0 mm 3 mps 772 mmHg 79%
    19:00 +10°C° 0 mm 3 mps 772 mmHg 82%
    20:00 +10°C° 0 mm 3 mps 772 mmHg 81%
    21:00 +10°C° 0 mm 3 mps 772 mmHg 81%
    22:00 +10°C° 0 mm 3 mps 772 mmHg 80%
    23:00 +10°C° 0 mm 3 mps 772 mmHg 80%

    25 January, Saturday

    Time Temperature Precipitation Wind Pressure Humidity
    00:00 +10°C° 0 mm 3 mps 771 mmHg 79%
    01:00 +10°C° 0 mm 3 mps 771 mmHg 79%
    02:00 +10°C° 0.1 mm 3 mps 771 mmHg 79%
    03:00 +10°C° 0.1 mm 3 mps 770 mmHg 79%
    04:00 +10°C° 0.1 mm 3 mps 770 mmHg 79%
    05:00 +10°C° 0.1 mm 3 mps 770 mmHg 80%
    06:00 +10°C° 0.1 mm 3 mps 770 mmHg 81%
    07:00 +10°C° 0.1 mm 3 mps 770 mmHg 82%
    08:00 +11°C° 0.1 mm 4 mps 770 mmHg 80%
    09:00 +11°C° 0.1 mm 4 mps 770 mmHg 79%
    10:00 +12°C° 0.1 mm 4 mps 770 mmHg 78%
    11:00 +13°C° 0.1 mm 4 mps 770 mmHg 77%
    12:00 +13°C° 0.1 mm 4 mps 769 mmHg 77%
    13:00 +13°C° 0.1 mm 4 mps 769 mmHg 76%
    14:00 +13°C° 0.1 mm 4 mps 769 mmHg 78%
    15:00 +13°C° 0.1 mm 4 mps 768 mmHg 80%
    16:00 +13°C° 0.1 mm 4 mps 768 mmHg 81%
    17:00 +12°C° 0.1 mm 4 mps 768 mmHg 82%
    18:00 +12°C° 0.1 mm 4 mps 768 mmHg 83%
    19:00 +12°C° 0.1 mm 4 mps 768 mmHg 84%
    20:00 +12°C° 0.1 mm 4 mps 768 mmHg 84%
    21:00 +12°C° 0.1 mm 4 mps 768 mmHg 84%
    22:00 +12°C° 0.1 mm 4 mps 768 mmHg 83%
    23:00 +12°C° 0.2 mm 5 mps 768 mmHg 84%
    Show more